Location: Bijele Vode
(45.2833°N, 16.2000°E)
Time: 04:26:35
(UTC+00:00)

Cosmos 1125 Rocket - Pass Details

Date: 17 January 2021
Orbit: 757 x 781 km, 74.0° (Epoch: 05 March)

Event Time Altitude Azimuth Distance (km) Brightness Sun altitude
Exits shadow 04:20:46 - 352° (N) 3,286 6.6 -22.2°
Rises 04:20:52 0° 352° (N) 3,259 6.6 -22.2°
Reaches altitude 10° 04:25:09 10° 26° (NNE) 2,333 6.2 -21.5°
Maximum altitude 04:26:54 12° 45° (NE) 2,226 6.3 -21.2°
Drops below altitude 10° 04:28:40 10° 65° (ENE) 2,333 6.8 -20.9°
Sets 04:32:56 0° 98° (E) 3,259 8.4 -20.1°
